Weather History for KATL - April, 2014

Change the Weather History Date:

Sunday, April 13, 2014

  Actual Average Record
Temperature  
Mean Temperature 69 °F 61 °F  
Max Temperature 80 °F 72 °F 86 °F (1981)
Min Temperature 57 °F 51 °F 28 °F (1940)
Degree Days  
Heating Degree Days 0 5  
Month to date heating degree days 49 82  
Since 1 July heating degree days 2832 2679  
Cooling Degree Days 4 2  
Month to date cooling degree days 18 14  
Year to date cooling degree days 20 27  
Growing Degree Days 18 (Base 50)    
Moisture  
Dew Point 53 °F    
Average Humidity 64    
Maximum Humidity 86    
Minimum Humidity 42    
Precipitation  
Precipitation 0.00 in 0.11 in 4.44 in (1979)
Month to date precipitation 2.92 1.51  
Year to date precipitation 13.20 15.19  
Sea Level Pressure  
Sea Level Pressure 30.08 in    
Wind  
Wind Speed 9 mph (South)    
Max Wind Speed 18 mph    
Max Gust Speed 23 mph    
Visibility 10 miles    
Events      
T = Trace of Precipitation, MM = Missing Value Source: NWS Daily Summary

Daily Weather History Graph

Daily Weather History Graph

Search for Another Location

Airport or City:

Trip Planner

Search our weather history database for the weather conditions in past years. The results will help you decide how hot, cold, wet, or windy it might be!

Date:

Astronomy

Apr. 13, 2014 Rise Set
Actual Time 7:09 AM EDT 8:07 PM EDT
Civil Twilight 6:44 AM EDT 8:32 PM EDT
Nautical Twilight 6:14 AM EDT 9:03 PM EDT
Astronomical Twilight 5:43 AM EDT 9:34 PM EDT
Moon 6:47 PM EDT (4/13) 6:03 AM EDT (4/13)
Length of Visible Light 13h 48m
Length of Day
12h 57m
Waxing Gibbous, 97% of the Moon is Illuminated
Apr 13
Waxing Gibbous
Apr 15
Full
Apr 22
Last Quarter
Apr 29
New
May 6
First Quarter

Hourly Weather History & Observations

Time (EDT) Temp. Dew Point Humidity Pressure Visibility Wind Dir Wind Speed Gust Speed Precip Events Conditions
12:52 AM 64.9 °F 52.0 °F 63% 30.12 in 10.0 mi South 6.9 mph - N/A   Mostly Cloudy
1:52 AM 64.0 °F 52.0 °F 65% 30.11 in 10.0 mi South 6.9 mph - N/A   Mostly Cloudy
2:52 AM 64.0 °F 52.0 °F 65% 30.10 in 10.0 mi SSE 5.8 mph - N/A   Mostly Cloudy
3:52 AM 62.1 °F 52.0 °F 70% 30.09 in 10.0 mi South 5.8 mph - N/A   Scattered Clouds
4:52 AM 61.0 °F 53.1 °F 75% 30.09 in 10.0 mi South 5.8 mph - N/A   Mostly Cloudy
5:52 AM 61.0 °F 53.1 °F 75% 30.10 in 10.0 mi Calm Calm - N/A   Scattered Clouds
6:52 AM 59.0 °F 53.1 °F 81% 30.12 in 10.0 mi ESE 5.8 mph - N/A   Scattered Clouds
7:52 AM 57.9 °F 53.1 °F 84% 30.15 in 10.0 mi SSE 4.6 mph - N/A   Scattered Clouds
8:52 AM 61.0 °F 55.0 °F 81% 30.16 in 10.0 mi South 5.8 mph - N/A   Scattered Clouds
9:52 AM 66.9 °F 55.9 °F 68% 30.16 in 10.0 mi South 9.2 mph - N/A   Mostly Cloudy
10:52 AM 72.0 °F 55.9 °F 57% 30.16 in 10.0 mi South 9.2 mph - N/A   Scattered Clouds
11:52 AM 75.0 °F 55.0 °F 50% 30.15 in 10.0 mi South 10.4 mph - N/A   Scattered Clouds
12:52 PM 77.0 °F 54.0 °F 45% 30.12 in 10.0 mi South 9.2 mph 19.6 mph N/A   Mostly Cloudy
1:52 PM 77.0 °F 54.0 °F 45% 30.10 in 10.0 mi South 13.8 mph - N/A   Mostly Cloudy
2:52 PM 79.0 °F 55.0 °F 44% 30.07 in 10.0 mi SSW 12.7 mph 19.6 mph N/A   Mostly Cloudy
3:52 PM 78.1 °F 54.0 °F 43% 30.06 in 10.0 mi South 12.7 mph - N/A   Mostly Cloudy
4:52 PM 78.1 °F 54.0 °F 43% 30.04 in 10.0 mi South 11.5 mph - N/A   Overcast
5:52 PM 78.1 °F 54.0 °F 43% 30.02 in 10.0 mi South 10.4 mph - N/A   Mostly Cloudy
6:52 PM 77.0 °F 53.1 °F 43% 30.02 in 10.0 mi SSE 15.0 mph - N/A   Mostly Cloudy
7:52 PM 75.2 °F 51.8 °F 44% 30.02 in 10.0 mi SSE 9.2 mph - N/A   Mostly Cloudy
8:52 PM 72.0 °F 53.1 °F 51% 30.01 in 10.0 mi SSE 5.8 mph - N/A   Overcast
9:52 PM 70.0 °F 54.0 °F 57% 30.03 in 10.0 mi SSE 6.9 mph - N/A   Mostly Cloudy
10:52 PM 70.0 °F 54.0 °F 57% 30.01 in 10.0 mi SSE 10.4 mph - N/A   Overcast
11:52 PM 70.0 °F 53.1 °F 55% 29.99 in 10.0 mi South 10.4 mph - N/A   Overcast